Location: Elliott Corner
(37.4627°N, 119.7746°W)
Time: 00:11:10
(UTC+00:00)

Atlas Centaur 2 - Pass Details

Date: 10 September 2024
Orbit: 457 x 1270 km, 30.4° (Epoch: 13 October)

Event Time Altitude Azimuth Distance (km) Brightness Sun altitude
Exits shadow 12:59:29 - 237° (WSW) 2,574 4.1 -8.3°
Reaches altitude 10° 12:59:55 10° 236° (SW) 2,436 4.0 -8.2°
Maximum altitude 13:05:26 41° 167° (SSE) 1,374 3.3 -7.1°
Drops below altitude 10° 13:12:11 10° 101° (E) 2,981 6.4 -5.8°
Sets 13:15:23 0° 95° (E) 4,044 7.7 -5.2°
